User: anonymous   Login
Location: Unspecified
(0.0000°N, 0.0000°E)
Time: 16:58:02
(UTC+00:00)
Language:

USA 113 - Orbit

View from above orbital plane
View from above orbital plane
View from above satellite
View from above satellite

Ground track
Ground track

The orbit data is extracted from the following two-line orbital elements,

1 23628U 95038A   24104.95523730 -.00000153  00000-0  00000-0 0  9991
2 23628  12.6775  20.8770 0001862 163.3344  16.0623  0.98666501 24922
Epoch (UTC): 13 April 2024 22:55:32
Eccentricity: 0.0001862
inclination: 12.6775°
perigee height: 36234 km
apogee height: 36250 km
right ascension of ascending node: 20.8770°
argument of perigee: 163.3344°
revolutions per day: 0.98666501
mean anomaly at epoch: 16.0623°
orbit number at epoch: 2492

The dashed part of the orbit path shows where the satellite is in the earth's shadow,  

DLR